Ibiza, Spain

11:49 AM CEST on June 26, 2017 (GMT +0200)
Ibiza

Weather History for LEIB - November, 2013

Change the Weather History Date:

Tuesday, November 19, 2013

  Actual Average Record
Temperature  
Mean Temperature 60 °F -  
Max Temperature 66 °F 61 °F 69 °F (2003)
Min Temperature 54 °F 50 °F 44 °F (2000)
Degree Days  
Heating Degree Days 5    
Growing Degree Days 10 (Base 50)    
Moisture  
Dew Point 49 °F    
Average Humidity 67    
Maximum Humidity 94    
Minimum Humidity 38    
Precipitation  
Precipitation 0.20 in 0.07 in - ()
Sea Level Pressure  
Sea Level Pressure 29.70 in    
Wind  
Wind Speed 10 mph ()    
Max Wind Speed 17 mph    
Max Gust Speed 25 mph    
Visibility 6.4 miles    
Events Rain    
Averages and records for this station are not official NWS values.
T = Trace of Precipitation, MM = Missing Value Source: Averaged Metar Reports

Daily Weather History Graph

Daily Weather History Graph

Search for Another Location

Airport or City:

Trip Planner

Search our weather history database for the weather conditions in past years. The results will help you decide how hot, cold, wet, or windy it might be!

Date:

Astronomy

Nov. 19, 2013 Rise Set
Actual Time 7:41 AM CET 5:37 PM CET
Civil Twilight 7:12 AM CET 6:06 PM CET
Nautical Twilight 6:40 AM CET 6:39 PM CET
Astronomical Twilight 6:08 AM CET 7:10 PM CET
Moon 7:16 PM CET (11/19) 9:08 AM CET (11/19)
Length of Visible Light 10h 53m
Length of Day
9h 56m
Full, 97% of the Moon is Illuminated
Nov 19
Full
Nov 25
Last Quarter
Dec 3
New
Dec 9
First Quarter
Dec 17
Full

Hourly Weather History & Observations

Time (CET) Temp. Dew Point Humidity Pressure Visibility Wind Dir Wind Speed Gust Speed Precip Events Conditions
12:00 AM 55 °F 52 °F 84% 29.57 in - WNW 13.8 mph - -   Unknown Precipitation
1:00 AM 55 °F 51 °F 84% 29.57 in 5 mi WNW 13.8 mph - - Rain Rain
2:00 AM 56 °F 52 °F 83% 29.56 in - NW 13.8 mph - -   Unknown Precipitation
3:00 AM 56 °F 51 °F 76% 29.57 in - WNW 17.3 mph - -   Unknown Precipitation
5:00 AM 55 °F 51 °F 81% 29.58 in - West 11.5 mph - -   Unknown Precipitation
5:30 AM 55.4 °F 51.8 °F 88% 29.56 in 6.2 mi West 11.5 mph - N/A   Partly Cloudy
6:00 AM 56 °F 51 °F 76% 29.59 in - West 10.4 mph - -   Unknown Precipitation
6:00 AM 57.2 °F 53.6 °F 88% 29.59 in 6.2 mi West 9.2 mph - N/A   Partly Cloudy
6:30 AM 57.2 °F 51.8 °F 82% 29.59 in 6.2 mi West 9.2 mph - N/A   Scattered Clouds
7:00 AM 58 °F 49 °F 65% 29.60 in 7 mi West 13.8 mph - -   Overcast
7:00 AM 59.0 °F 51.8 °F 77% 29.59 in 6.2 mi West 12.7 mph - N/A   Scattered Clouds
7:30 AM 59.0 °F 51.8 °F 77% 29.59 in 6.2 mi West 13.8 mph 25.3 mph N/A   Scattered Clouds
8:00 AM 59 °F 48 °F 59% 29.63 in - West 13.8 mph - -  
8:00 AM 59.0 °F 50.0 °F 72% 29.62 in 6.2 mi West 13.8 mph - N/A   Partly Cloudy
8:30 AM 59.0 °F 51.8 °F 77% 29.62 in 6.2 mi West 16.1 mph - N/A   Partly Cloudy
9:00 AM 61 °F 50 °F 57% 29.65 in - West 12.7 mph - -  
9:00 AM 60.8 °F 51.8 °F 72% 29.62 in 6.2 mi West 11.5 mph - N/A   Partly Cloudy
9:30 AM 62.6 °F 51.8 °F 68% 29.65 in 6.2 mi West 17.3 mph - N/A   Scattered Clouds
10:00 AM 62.6 °F 48.2 °F 59% 29.65 in 6.2 mi West 11.5 mph - N/A   Scattered Clouds
10:30 AM 62.6 °F 50.0 °F 63% 29.68 in 6.2 mi West 11.5 mph - N/A   Scattered Clouds
11:00 AM 64 °F 48 °F 45% 29.69 in - WNW 10.4 mph - -  
11:00 AM 64.4 °F 48.2 °F 56% 29.68 in 6.2 mi WNW 9.2 mph - N/A   Scattered Clouds
11:30 AM 62.6 °F 48.2 °F 59% 29.68 in 6.2 mi West 9.2 mph - N/A   Mostly Cloudy
12:00 PM 65 °F 48 °F 43% 29.70 in - WNW 11.5 mph - -  
12:00 PM 64.4 °F 50.0 °F 59% 29.68 in 6.2 mi NW 12.7 mph - N/A   Scattered Clouds
12:30 PM 64.4 °F 44.6 °F 49% 29.68 in 6.2 mi NW 12.7 mph - N/A   Scattered Clouds
1:00 PM 66 °F 46 °F 38% 29.70 in 12 mi NW 13.8 mph - -   Scattered Clouds
1:00 PM 66.2 °F 44.6 °F 46% 29.68 in 6.2 mi NW 12.7 mph - N/A   Partly Cloudy
1:30 PM 64.4 °F 44.6 °F 49% 29.68 in 6.2 mi NW 13.8 mph - N/A   Partly Cloudy
2:00 PM 65 °F 46 °F 38% 29.71 in - NNW 15.0 mph - -  
2:00 PM 64.4 °F 44.6 °F 49% 29.68 in 6.2 mi NNW 13.8 mph 25.3 mph N/A   Partly Cloudy
2:30 PM 64.4 °F 46.4 °F 52% 29.68 in 6.2 mi North 11.5 mph 24.2 mph N/A   Partly Cloudy
3:00 PM 65 °F 45 °F 38% 29.70 in - NNW 13.8 mph - -  
3:00 PM 64.4 °F 44.6 °F 49% 29.68 in 6.2 mi NNW 13.8 mph - N/A   Partly Cloudy
3:30 PM 64.4 °F 44.6 °F 49% 29.71 in 6.2 mi NW 12.7 mph - N/A   Partly Cloudy
4:00 PM 62.6 °F 46.4 °F 55% 29.74 in 6.2 mi NNW 10.4 mph - N/A   Partly Cloudy
4:30 PM 62.6 °F 46.4 °F 55% 29.74 in 6.2 mi NNW 9.2 mph - N/A   Partly Cloudy
5:00 PM 62 °F 46 °F 45% 29.77 in - NNW 8.1 mph - -  
5:00 PM 62.6 °F 44.6 °F 52% 29.74 in 6.2 mi NNW 8.1 mph - N/A   Partly Cloudy
5:30 PM 60.8 °F 46.4 °F 59% 29.77 in 6.2 mi Calm Calm - N/A   Partly Cloudy
6:00 PM 60 °F 47 °F 53% 29.79 in - Calm Calm - -  
6:00 PM 60.8 °F 46.4 °F 59% 29.77 in 6.2 mi Calm Calm - N/A   Partly Cloudy
6:30 PM 59.0 °F 48.2 °F 67% 29.80 in 6.2 mi Calm Calm - N/A   Partly Cloudy
7:00 PM 58 °F 51 °F 70% 29.81 in 9 mi NNW 2.3 mph - - Rain Light Drizzle
7:00 PM 59.0 °F 51.8 °F 77% 29.80 in 6.2 mi Calm Calm - N/A   Light Drizzle
7:30 PM 57.2 °F 53.6 °F 88% 29.80 in 6.2 mi NNW 3.5 mph - N/A   Light Drizzle
8:00 PM 57 °F 51 °F 73% 29.82 in - NNW 3.5 mph - -   Unknown Precipitation
8:00 PM 57.2 °F 53.6 °F 88% 29.80 in 6.2 mi NNW 3.5 mph - N/A   Partly Cloudy
8:30 PM 57.2 °F 53.6 °F 88% 29.80 in 6.2 mi NNW 3.5 mph - N/A   Light Drizzle
9:00 PM 56 °F 51 °F 77% 29.83 in - NNW 3.5 mph - -  
9:00 PM 57.2 °F 53.6 °F 88% 29.83 in 6.2 mi NNW 3.5 mph - N/A   Partly Cloudy
9:30 PM 55.4 °F 53.6 °F 94% 29.83 in 6.2 mi Calm Calm - N/A   Partly Cloudy
10:00 PM 55.4 °F 53.6 °F 94% 29.83 in 6.2 mi Calm Calm - N/A   Partly Cloudy
10:30 PM 55.4 °F 53.6 °F 94% 29.83 in 6.2 mi Calm Calm - N/A   Partly Cloudy
11:00 PM 56 °F 48 °F 68% 29.86 in - NW 10.4 mph - -  
11:00 PM 55.4 °F 51.8 °F 88% 29.83 in 6.2 mi WNW 6.9 mph - N/A   Partly Cloudy
11:30 PM 55.4 °F 51.8 °F 88% 29.86 in 6.2 mi NW 9.2 mph - N/A   Drizzle